Atyray, Kazakhstan

8:12 AM AQTT on September 04, 2015 (GMT +0500)
Atyrau | | Change Station
CLOSE
Current Station
Airport
Location: Atyrau,
Elevation: -72 ft
Nearby Weather Stations

Elev -72 ft 47.12 °N, 51.83 °E | Updated 12 minutes ago

Clear
Clear
63 °F
Feels Like 63 °F
N
7
Wind Variable Wind from ESE

Today
High -- | Low -- °F
--% Chance of Precip.
Yesterday
High -- | Low -- °F
Precip. -- in
6:54 AM 8:07 PM
Waning Gibbous, 64% visible
Pressure 29.92 in
Visibility -9999.0 miles
Clouds
Dew Point 50 °F
Humidity 63%
Rainfall 0.00 in
Snow Depth Not available.
UV Not available.
Pollen Not available.
Air Quality Not available.
Flu Activity Not available.
METAR UATG 040300Z 11003MPS CAVOK 17/10 Q1013 R14/19//67 NOSIG RMK QFE762/1016
Pressure 29.92 in
Visibility -9999.0 miles
Clouds
Dew Point 50 °F
Humidity 63%
Rainfall 0.00 in
Snow Depth Not available.
UV Not available.
Pollen Not available.
Air Quality Not available.
Flu Activity Not available.
METAR UATG 040300Z 11003MPS CAVOK 17/10 Q1013 R14/19//67 NOSIG RMK QFE762/1016

10-Day Weather Forecast

×

Almanac

Astronomy

Sep. 04, 2015 Rise Set
Actual Time
Civil Twilight
Nautical Twilight
Astronomical Twilight
Moon
Length of Visible Light
Length of Day
Tomorrow will be .
, % of the Moon is Illuminated

Today's Extremes

Country Highs Country Lows

Community

WunderPhotos

Upload Photos

1,852,110 photos uploaded!

WunderBlogs® & News

Nearby

Air Quality

  Air Quality AQ Index Pollutant
Not available.

Snow Depth

Station Depth Elevation

Earthquake Activity

City Distance Mag. Time & Date
Minimum magnitude displayed is 2.5.

Coastal Water Temperatures

Place Temperature

Stations

Nearby Weather Stations

Station Location Temp. Windchill Dew Point Humidity Wind Precip. Elev Updated Type